Location: Austin
(30.3000°N, 97.7500°W)
Time: 02:42:45
(UTC-05:00)

Cosmos 1538 Rocket - Pass Details

Date: 15 May 2024
Orbit: 751 x 789 km, 74.0° (Epoch: 30 May)

Event Time Altitude Azimuth Distance (km) Brightness Sun altitude
Rises 21:48:03 0° 199° (SSW) 3,248 7.1 -17.7°
Reaches altitude 10° 21:50:27 10° 201° (SSW) 2,319 6.3 -18.1°
Maximum altitude 21:55:43 75° 286° (WNW) 800 4.2 -19.0°
Drops below altitude 10° 22:00:57 10° 12° (NNE) 2,306 6.8 -19.9°
Sets 22:03:19 0° 14° (NNE) 3,229 7.6 -20.3°
